Back to catalog

STARLINK-32132

AliveCommunicationsVLEO
NORAD 60334·PAYLOAD·🇺🇸 United States

Launched Aug 2, 2024 from Cape Canaveral Space Force Station

Loading…

Next Passes (next 24 hours)

TLE

FreshSource: CelesTrak SupGP

Epoch: Sep 14, 2026, 14:00 UTC

1 60334C 24136F   26257.58381944  .00020739  00000+0  61286-3 0  2579
2 60334  53.1572 277.4591 0001304  83.1021  24.8714 15.34373137    13

Track STARLINK-32132 in real time with AllMySat

Download on the App Store